When you browse on this site, cookies collect data to enhance your experience and personalize the content and advertising you see.
Visit our Privacy Policy to learn more. By continuing to use the site, you agree to this use of cookies and data.
  • In United Kingdom
  • List of Countries
  • For 7 days
  • Water Temperature
  • Weather Map
  • Weather Widgets
  • user-avatar
    Login

    Hourly Weather Pitushkiv

    Today, 18 September, Wednesday

    Time Temperature Precipitation Wind Pressure Humidity
    00:00 +9°C° 0.6 mm 5 mps 734 mmHg 71%
    01:00 +8°C° 0.6 mm 6 mps 734 mmHg 76%
    02:00 +6°C° 0 mm 7 mps 734 mmHg 78%
    03:00 +6°C° 0.1 mm 7 mps 734 mmHg 79%
    04:00 +5°C° 0.1 mm 7 mps 734 mmHg 81%
    05:00 +5°C° 0.1 mm 8 mps 735 mmHg 83%
    06:00 +5°C° 0.1 mm 8 mps 735 mmHg 80%
    07:00 +5°C° 0.1 mm 9 mps 735 mmHg 76%
    08:00 +6°C° 0 mm 9 mps 736 mmHg 73%
    09:00 +6°C° 0 mm 9 mps 736 mmHg 73%
    10:00 +6°C° 0 mm 9 mps 737 mmHg 74%
    11:00 +6°C° 0 mm 9 mps 737 mmHg 75%
    12:00 +6°C° 0.3 mm 9 mps 738 mmHg 75%
    13:00 +7°C° 0.3 mm 10 mps 738 mmHg 75%
    14:00 +8°C° 0.3 mm 10 mps 738 mmHg 75%
    15:00 +8°C° 0.2 mm 9 mps 739 mmHg 74%
    16:00 +8°C° 0.2 mm 9 mps 739 mmHg 73%
    17:00 +9°C° 0.2 mm 8 mps 740 mmHg 71%
    18:00 +9°C° 0 mm 7 mps 741 mmHg 73%
    19:00 +8°C° 0 mm 6 mps 741 mmHg 74%
    20:00 +7°C° 0 mm 5 mps 742 mmHg 75%
    21:00 +7°C° 0 mm 5 mps 742 mmHg 77%
    22:00 +7°C° 0 mm 5 mps 742 mmHg 78%
    23:00 +5°C° 0 mm 6 mps 742 mmHg 79%

    Tomorrow, 19 September, Thursday

    Time Temperature Precipitation Wind Pressure Humidity
    00:00 +6°C° 0 mm 5 mps 743 mmHg 82%
    01:00 +6°C° 0 mm 5 mps 743 mmHg 85%
    02:00 +5°C° 0 mm 5 mps 743 mmHg 87%
    03:00 +5°C° 0 mm 5 mps 743 mmHg 89%
    04:00 +3°C° 0 mm 5 mps 743 mmHg 91%
    05:00 +4°C° 0 mm 4 mps 743 mmHg 93%
    06:00 +5°C° 0 mm 5 mps 744 mmHg 90%
    07:00 +6°C° 0 mm 5 mps 744 mmHg 88%
    08:00 +6°C° 0 mm 5 mps 744 mmHg 85%
    09:00 +8°C° 0.1 mm 6 mps 745 mmHg 77%
    10:00 +10°C° 0.1 mm 6 mps 745 mmHg 68%
    11:00 +11°C° 0.1 mm 6 mps 745 mmHg 60%
    12:00 +13°C° 0.3 mm 6 mps 745 mmHg 58%
    13:00 +13°C° 0.3 mm 6 mps 745 mmHg 56%
    14:00 +14°C° 0.3 mm 7 mps 745 mmHg 55%
    15:00 +13°C° 0.2 mm 6 mps 745 mmHg 57%
    16:00 +13°C° 0.2 mm 5 mps 745 mmHg 59%
    17:00 +13°C° 0.2 mm 5 mps 745 mmHg 61%
    18:00 +11°C° 0 mm 4 mps 745 mmHg 67%
    19:00 +8°C° 0 mm 4 mps 745 mmHg 74%
    20:00 +8°C° 0 mm 3 mps 745 mmHg 80%
    21:00 +7°C° 0.1 mm 3 mps 745 mmHg 82%
    22:00 +7°C° 0.1 mm 3 mps 745 mmHg 84%
    23:00 +5°C° 0.1 mm 3 mps 745 mmHg 87%

    Day after tomorrow, 20 September, Friday

    Time Temperature Precipitation Wind Pressure Humidity
    00:00 +5°C° 0.2 mm 3 mps 745 mmHg 88%
    01:00 +5°C° 0.2 mm 3 mps 745 mmHg 90%
    02:00 +5°C° 0.2 mm 3 mps 745 mmHg 92%
    03:00 +5°C° 0.1 mm 3 mps 745 mmHg 92%
    04:00 +5°C° 0.1 mm 3 mps 745 mmHg 93%
    05:00 +5°C° 0.1 mm 3 mps 745 mmHg 93%
    06:00 +5°C° 0 mm 4 mps 745 mmHg 92%
    07:00 +5°C° 0 mm 4 mps 746 mmHg 90%
    08:00 +6°C° 0 mm 5 mps 746 mmHg 89%
    09:00 +7°C° 0 mm 5 mps 746 mmHg 81%
    10:00 +8°C° 0 mm 6 mps 747 mmHg 74%
    11:00 +9°C° 0 mm 6 mps 747 mmHg 66%
    12:00 +10°C° 0.1 mm 6 mps 747 mmHg 59%
    13:00 +11°C° 0.1 mm 7 mps 747 mmHg 52%
    14:00 +12°C° 0.1 mm 7 mps 747 mmHg 45%
    15:00 +11°C° 0 mm 6 mps 747 mmHg 45%
    16:00 +11°C° 0 mm 6 mps 747 mmHg 46%
    17:00 +12°C° 0 mm 5 mps 747 mmHg 46%
    18:00 +10°C° 0 mm 4 mps 747 mmHg 53%
    19:00 +7°C° 0 mm 4 mps 748 mmHg 59%
    20:00 +7°C° 0 mm 3 mps 748 mmHg 66%
    21:00 +5°C° 0 mm 3 mps 748 mmHg 72%
    22:00 +6°C° 0 mm 2 mps 748 mmHg 77%
    23:00 +5°C° 0 mm 2 mps 748 mmHg 83%

    21 September, Saturday

    Time Temperature Precipitation Wind Pressure Humidity
    00:00 +5°C° 0 mm 2 mps 749 mmHg 84%
    01:00 +5°C° 0 mm 2 mps 749 mmHg 86%
    02:00 +4°C° 0 mm 2 mps 749 mmHg 87%
    03:00 +4°C° 0 mm 2 mps 749 mmHg 88%
    04:00 +4°C° 0 mm 2 mps 749 mmHg 88%
    05:00 +3°C° 0 mm 3 mps 748 mmHg 89%
    06:00 +4°C° 0 mm 3 mps 748 mmHg 82%
    07:00 +5°C° 0 mm 3 mps 748 mmHg 76%
    08:00 +6°C° 0 mm 4 mps 748 mmHg 69%
    09:00 +8°C° 0 mm 4 mps 749 mmHg 63%
    10:00 +12°C° 0 mm 5 mps 749 mmHg 58%
    11:00 +14°C° 0 mm 5 mps 749 mmHg 52%
    12:00 +14°C° 0 mm 6 mps 748 mmHg 50%
    13:00 +15°C° 0 mm 6 mps 748 mmHg 49%
    14:00 +16°C° 0 mm 6 mps 748 mmHg 47%
    15:00 +15°C° 0 mm 5 mps 747 mmHg 50%
    16:00 +15°C° 0 mm 5 mps 747 mmHg 52%
    17:00 +15°C° 0 mm 4 mps 747 mmHg 54%
    18:00 +13°C° 0 mm 4 mps 747 mmHg 60%
    19:00 +11°C° 0 mm 3 mps 747 mmHg 65%
    20:00 +10°C° 0 mm 3 mps 747 mmHg 70%
    21:00 +9°C° 0 mm 3 mps 747 mmHg 71%
    22:00 +9°C° 0 mm 3 mps 746 mmHg 73%
    23:00 +8°C° 0 mm 3 mps 746 mmHg 74%

    22 September, Sunday

    Time Temperature Precipitation Wind Pressure Humidity
    00:00 +8°C° 0 mm 3 mps 746 mmHg 74%
    01:00 +8°C° 0 mm 3 mps 746 mmHg 75%
    02:00 +7°C° 0 mm 4 mps 746 mmHg 75%
    03:00 +7°C° 0 mm 3 mps 746 mmHg 76%
    04:00 +7°C° 0 mm 3 mps 746 mmHg 77%
    05:00 +7°C° 0 mm 3 mps 745 mmHg 78%
    06:00 +8°C° 0 mm 3 mps 745 mmHg 73%
    07:00 +8°C° 0 mm 4 mps 745 mmHg 69%
    08:00 +10°C° 0 mm 4 mps 745 mmHg 65%
    09:00 +12°C° 0 mm 4 mps 745 mmHg 59%
    10:00 +14°C° 0 mm 4 mps 745 mmHg 54%
    11:00 +17°C° 0 mm 4 mps 745 mmHg 48%
    12:00 +18°C° 0 mm 3 mps 745 mmHg 46%
    13:00 +19°C° 0 mm 3 mps 745 mmHg 43%
    14:00 +20°C° 0 mm 3 mps 744 mmHg 41%
    15:00 +20°C° 0 mm 3 mps 744 mmHg 44%
    16:00 +19°C° 0 mm 2 mps 744 mmHg 47%
    17:00 +20°C° 0 mm 1 mps 744 mmHg 51%
    18:00 +18°C° 0 mm 1 mps 743 mmHg 55%
    19:00 +15°C° 0 mm 1 mps 743 mmHg 59%
    20:00 +12°C° 0 mm 0 mps 743 mmHg 64%
    21:00 +13°C° 0 mm 1 mps 743 mmHg 65%
    22:00 +12°C° 0 mm 1 mps 743 mmHg 66%
    23:00 +12°C° 0 mm 2 mps 743 mmHg 66%

    23 September, Monday

    Time Temperature Precipitation Wind Pressure Humidity
    00:00 +10°C° 0 mm 2 mps 743 mmHg 67%
    01:00 +10°C° 0 mm 3 mps 742 mmHg 68%
    02:00 +10°C° 0 mm 3 mps 742 mmHg 69%
    03:00 +10°C° 0 mm 3 mps 741 mmHg 68%
    04:00 +10°C° 0 mm 3 mps 741 mmHg 67%
    05:00 +10°C° 0 mm 4 mps 740 mmHg 66%
    06:00 +11°C° 0 mm 4 mps 740 mmHg 61%
    07:00 +12°C° 0 mm 4 mps 739 mmHg 56%
    08:00 +12°C° 0 mm 4 mps 739 mmHg 51%
    09:00 +13°C° 0 mm 4 mps 738 mmHg 52%
    10:00 +13°C° 0 mm 4 mps 738 mmHg 54%
    11:00 +14°C° 0 mm 4 mps 738 mmHg 55%
    12:00 +15°C° 0 mm 5 mps 737 mmHg 57%
    13:00 +16°C° 0 mm 5 mps 737 mmHg 59%
    14:00 +17°C° 0 mm 5 mps 736 mmHg 61%
    15:00 +17°C° 0 mm 5 mps 736 mmHg 63%
    16:00 +18°C° 0 mm 4 mps 735 mmHg 66%
    17:00 +18°C° 0 mm 4 mps 735 mmHg 69%
    18:00 +15°C° 0 mm 4 mps 735 mmHg 75%
    19:00 +14°C° 0 mm 4 mps 735 mmHg 82%
    20:00 +13°C° 0 mm 4 mps 734 mmHg 89%
    21:00 +13°C° 0 mm 4 mps 734 mmHg 87%
    22:00 +12°C° 0 mm 4 mps 734 mmHg 86%
    23:00 +12°C° 0 mm 3 mps 734 mmHg 85%
    Show more